Time,TemperatureF,DewpointF,PressureIn,WindDirection,WindDirectionDegrees,WindSpeedMPH,WindSpeedGustMPH,Humidity,HourlyPrecipIn,Conditions,Clouds,dailyrainin,SoftwareType,DateUTC
2013-03-31 00:03:00,65.3,62.0,29.93,ENE,69,4.0,-999.0,89,0.00,,,0.09,PyWeather,2013-03-31 10:03:00,
2013-03-31 00:08:00,65.3,61.6,29.93,ENE,67,5.0,-999.0,88,0.00,,,0.09,PyWeather,2013-03-31 10:08:00,
2013-03-31 00:13:00,65.4,61.7,29.93,East,92,5.0,-999.0,88,0.00,,,0.09,PyWeather,2013-03-31 10:13:00,
2013-03-31 00:18:00,65.3,61.6,29.93,East,80,5.0,-999.0,88,0.00,,,0.09,PyWeather,2013-03-31 10:18:00,
2013-03-31 00:23:00,65.3,61.6,29.93,ENE,74,5.0,-999.0,88,0.00,,,0.09,PyWeather,2013-03-31 10:23:00,
2013-03-31 00:28:00,65.4,61.4,29.93,East,86,5.0,-999.0,87,0.00,,,0.09,PyWeather,2013-03-31 10:28:00,
2013-03-31 00:33:00,65.4,61.4,29.92,ENE,78,5.0,-999.0,87,0.00,,,0.09,PyWeather,2013-03-31 10:33:00,
2013-03-31 00:38:00,65.3,61.3,29.92,ENE,78,4.0,-999.0,87,0.00,,,0.09,PyWeather,2013-03-31 10:38:00,
2013-03-31 00:43:00,65.2,61.2,29.92,ENE,69,4.0,-999.0,87,0.00,,,0.09,PyWeather,2013-03-31 10:43:00,
2013-03-31 00:48:00,65.4,61.4,29.92,ENE,77,4.0,-999.0,87,0.00,,,0.09,PyWeather,2013-03-31 10:48:00,
2013-03-31 00:53:00,65.7,61.7,29.92,ENE,57,4.0,-999.0,87,0.00,,,0.09,PyWeather,2013-03-31 10:53:00,
2013-03-31 00:58:00,65.9,61.9,29.92,ENE,61,5.0,-999.0,87,0.00,,,0.09,PyWeather,2013-03-31 10:58:00,
2013-03-31 01:03:00,66.1,62.1,29.92,ENE,75,5.0,-999.0,87,0.00,,,0.09,PyWeather,2013-03-31 11:03:00,
2013-03-31 01:08:00,66.2,61.9,29.92,ENE,61,4.0,-999.0,86,0.00,,,0.09,PyWeather,2013-03-31 11:08:00,
2013-03-31 01:13:00,66.4,62.4,29.92,NE,46,4.0,-999.0,87,0.00,,,0.09,PyWeather,2013-03-31 11:13:00,
2013-03-31 01:18:00,66.5,62.2,29.92,ENE,72,4.0,-999.0,86,0.00,,,0.09,PyWeather,2013-03-31 11:18:00,
2013-03-31 01:23:00,66.5,62.2,29.92,ENE,61,5.0,-999.0,86,0.00,,,0.09,PyWeather,2013-03-31 11:23:00,
2013-03-31 01:28:00,66.7,62.4,29.91,NE,34,6.0,-999.0,86,0.00,,,0.00,PyWeather,2013-03-31 11:28:00,
2013-03-31 01:34:00,66.9,62.6,29.91,NNE,22,5.0,-999.0,86,0.00,,,0.00,PyWeather,2013-03-31 11:34:00,
2013-03-31 01:39:00,66.8,62.5,29.91,NE,49,4.0,-999.0,86,0.00,,,0.00,PyWeather,2013-03-31 11:39:00,
2013-03-31 01:44:00,66.8,62.5,29.91,NNE,17,6.0,-999.0,86,0.00,,,0.00,PyWeather,2013-03-31 11:44:00,
2013-03-31 01:49:00,66.8,62.8,29.91,NE,46,5.0,-999.0,87,0.00,,,0.00,PyWeather,2013-03-31 11:49:00,
2013-03-31 01:54:00,67.0,63.0,29.91,ENE,63,5.0,-999.0,87,0.00,,,0.00,PyWeather,2013-03-31 11:54:00,
2013-03-31 01:59:00,66.7,62.7,29.91,ENE,64,5.0,-999.0,87,0.00,,,0.00,PyWeather,2013-03-31 11:59:00,
2013-03-31 02:04:00,66.3,62.3,29.91,East,92,6.0,-999.0,87,0.00,,,0.00,PyWeather,2013-03-31 12:04:00,
2013-03-31 02:09:00,66.2,62.2,29.91,ENE,71,7.0,-999.0,87,0.00,,,0.00,PyWeather,2013-03-31 12:09:00,
2013-03-31 02:14:00,66.3,62.3,29.90,ENE,67,6.0,-999.0,87,0.00,,,0.00,PyWeather,2013-03-31 12:14:00,
2013-03-31 02:19:00,66.3,62.6,29.90,ENE,76,6.0,-999.0,88,0.00,,,0.00,PyWeather,2013-03-31 12:19:00,
2013-03-31 02:24:00,66.3,62.6,29.91,NE,40,6.0,-999.0,88,0.00,,,0.00,PyWeather,2013-03-31 12:24:00,
2013-03-31 02:29:00,66.4,62.7,29.90,ENE,63,6.0,-999.0,88,0.00,,,0.00,PyWeather,2013-03-31 12:29:00,
2013-03-31 02:34:00,66.6,62.9,29.91,NNE,32,7.0,-999.0,88,0.00,,,0.00,PyWeather,2013-03-31 12:34:00,
2013-03-31 02:39:00,66.9,63.2,29.91,NE,55,7.0,-999.0,88,0.00,,,0.00,PyWeather,2013-03-31 12:39:00,
2013-03-31 02:44:00,66.8,63.1,29.90,NE,51,6.0,-999.0,88,0.00,,,0.01,PyWeather,2013-03-31 12:44:00,
2013-03-31 02:49:00,67.2,63.8,29.90,North,11,7.0,13.0,89,0.00,,,0.01,PyWeather,2013-03-31 12:49:00,
2013-03-31 02:54:00,67.2,63.8,29.90,NNE,24,9.0,13.0,89,0.00,,,0.01,PyWeather,2013-03-31 12:54:00,
2013-03-31 02:59:00,66.8,63.4,29.90,NNE,31,10.0,18.0,89,0.00,,,0.01,PyWeather,2013-03-31 12:59:00,
2013-03-31 03:04:00,66.7,63.3,29.90,NE,47,11.0,18.0,89,0.00,,,0.01,PyWeather,2013-03-31 13:04:00,
2013-03-31 03:09:00,66.5,63.1,29.91,NE,34,11.0,-999.0,89,0.00,,,0.01,PyWeather,2013-03-31 13:09:00,
2013-03-31 03:15:00,66.4,63.0,29.90,NE,40,11.0,-999.0,89,0.00,,,0.01,PyWeather,2013-03-31 13:15:00,
2013-03-31 03:20:00,66.3,63.3,29.90,NE,38,11.0,-999.0,90,0.00,,,0.01,PyWeather,2013-03-31 13:20:00,
2013-03-31 03:25:00,66.2,63.2,29.91,NE,42,11.0,-999.0,90,0.00,,,0.01,PyWeather,2013-03-31 13:25:00,
2013-03-31 03:30:00,66.2,63.2,29.91,NE,51,11.0,19.0,90,0.00,,,0.01,PyWeather,2013-03-31 13:30:00,
2013-03-31 03:35:00,66.1,63.1,29.91,NE,40,11.0,19.0,90,0.00,,,0.01,PyWeather,2013-03-31 13:35:00,
2013-03-31 03:40:00,66.1,63.1,29.91,NE,34,11.0,-999.0,90,0.00,,,0.01,PyWeather,2013-03-31 13:40:00,
2013-03-31 03:45:00,66.1,63.1,29.91,NE,39,10.0,-999.0,90,0.00,,,0.01,PyWeather,2013-03-31 13:45:00,
2013-03-31 03:50:00,65.8,62.8,29.91,NE,55,10.0,-999.0,90,0.00,,,0.01,PyWeather,2013-03-31 13:50:00,
2013-03-31 03:55:00,65.7,62.7,29.91,NE,46,10.0,-999.0,90,0.00,,,0.01,PyWeather,2013-03-31 13:55:00,
2013-03-31 04:01:00,65.6,62.9,29.91,NE,55,11.0,-999.0,91,0.00,,,0.01,PyWeather,2013-03-31 14:01:00,
2013-03-31 04:06:00,65.5,63.1,29.91,ENE,66,10.0,-999.0,92,0.00,,,0.01,PyWeather,2013-03-31 14:06:00,
2013-03-31 04:11:00,65.4,62.7,29.91,ENE,67,9.0,18.0,91,0.00,,,0.01,PyWeather,2013-03-31 14:11:00,
2013-03-31 04:16:00,65.2,62.5,29.91,NE,56,9.0,18.0,91,0.00,,,0.01,PyWeather,2013-03-31 14:16:00,
2013-03-31 04:22:00,65.0,62.3,29.91,ENE,62,9.0,-999.0,91,0.00,,,0.01,PyWeather,2013-03-31 14:22:00,
2013-03-31 04:27:00,64.9,62.2,29.92,NE,56,7.0,-999.0,91,0.00,,,0.01,PyWeather,2013-03-31 14:27:00,
2013-03-31 04:32:00,64.7,62.0,29.92,ENE,62,7.0,-999.0,91,0.00,,,0.01,PyWeather,2013-03-31 14:32:00,
2013-03-31 04:37:00,64.6,61.9,29.92,NE,49,8.0,14.0,91,0.00,,,0.01,PyWeather,2013-03-31 14:37:00,
2013-03-31 04:43:00,64.4,61.7,29.92,ENE,71,8.0,14.0,91,0.00,,,0.01,PyWeather,2013-03-31 14:43:00,
2013-03-31 04:48:00,64.2,61.5,29.92,ENE,67,8.0,-999.0,91,0.00,,,0.01,PyWeather,2013-03-31 14:48:00,
2013-03-31 04:53:00,64.2,61.5,29.92,NE,49,8.0,-999.0,91,0.00,,,0.01,PyWeather,2013-03-31 14:53:00,
2013-03-31 04:58:00,64.4,61.4,29.92,ENE,63,6.0,-999.0,90,0.00,,,0.01,PyWeather,2013-03-31 14:58:00,
2013-03-31 05:03:00,64.4,61.1,29.92,NE,42,5.0,-999.0,89,0.00,,,0.01,PyWeather,2013-03-31 15:03:00,
2013-03-31 05:08:00,64.5,61.2,29.92,NNE,27,5.0,-999.0,89,0.00,,,0.01,PyWeather,2013-03-31 15:08:00,
2013-03-31 05:13:00,64.5,60.9,29.92,NE,51,6.0,-999.0,88,0.00,,,0.01,PyWeather,2013-03-31 15:13:00,
2013-03-31 05:19:00,64.8,60.5,29.92,NE,46,7.0,-999.0,86,0.00,,,0.01,PyWeather,2013-03-31 15:19:00,
2013-03-31 05:24:00,65.6,60.7,29.92,NE,48,9.0,-999.0,84,0.00,,,0.01,PyWeather,2013-03-31 15:24:00,
2013-03-31 05:29:00,65.9,60.6,29.93,NE,38,8.0,-999.0,83,0.00,,,0.01,PyWeather,2013-03-31 15:29:00,
2013-03-31 05:34:00,66.0,60.1,29.93,NE,46,7.0,-999.0,81,0.00,,,0.01,PyWeather,2013-03-31 15:34:00,
2013-03-31 05:39:00,66.2,59.9,29.93,NE,36,8.0,-999.0,80,0.00,,,0.01,PyWeather,2013-03-31 15:39:00,
2013-03-31 05:44:00,66.1,59.8,29.93,NE,37,7.0,-999.0,80,0.00,,,0.01,PyWeather,2013-03-31 15:44:00,
2013-03-31 05:49:00,66.1,59.5,29.93,NE,38,7.0,-999.0,79,0.00,,,0.01,PyWeather,2013-03-31 15:49:00,
2013-03-31 05:54:00,65.9,59.3,29.94,NNE,25,8.0,-999.0,79,0.00,,,0.01,PyWeather,2013-03-31 15:54:00,
2013-03-31 05:59:00,65.9,59.3,29.94,NE,40,8.0,-999.0,79,0.00,,,0.01,PyWeather,2013-03-31 15:59:00,
2013-03-31 06:05:00,65.9,59.3,29.94,NE,45,8.0,-999.0,79,0.00,,,0.01,PyWeather,2013-03-31 16:05:00,
2013-03-31 06:10:00,65.9,58.9,29.94,NNE,13,8.0,-999.0,78,0.00,,,0.01,PyWeather,2013-03-31 16:10:00,
2013-03-31 06:15:00,65.9,58.6,29.95,NNE,19,9.0,-999.0,77,0.00,,,0.01,PyWeather,2013-03-31 16:15:00,
2013-03-31 06:20:00,65.8,58.5,29.95,NNE,32,8.0,-999.0,77,0.00,,,0.01,PyWeather,2013-03-31 16:20:00,
2013-03-31 06:25:00,65.6,58.3,29.95,NNE,24,9.0,-999.0,77,0.00,,,0.01,PyWeather,2013-03-31 16:25:00,
2013-03-31 06:30:00,65.6,58.3,29.95,NNE,20,8.0,-999.0,77,0.00,,,0.01,PyWeather,2013-03-31 16:30:00,
2013-03-31 06:35:00,65.6,57.9,29.95,NNE,17,8.0,-999.0,76,0.00,,,0.01,PyWeather,2013-03-31 16:35:00,
2013-03-31 06:40:00,65.6,57.9,29.95,NNE,25,7.0,-999.0,76,0.00,,,0.01,PyWeather,2013-03-31 16:40:00,
2013-03-31 06:45:00,65.8,57.8,29.95,NNE,16,8.0,-999.0,75,0.00,,,0.01,PyWeather,2013-03-31 16:45:00,
2013-03-31 06:51:00,65.9,57.5,29.95,NE,43,8.0,-999.0,74,0.00,,,0.01,PyWeather,2013-03-31 16:51:00,
2013-03-31 06:56:00,66.0,57.6,29.96,NNE,26,8.0,-999.0,74,0.00,,,0.01,PyWeather,2013-03-31 16:56:00,
2013-03-31 07:01:00,66.3,57.9,29.96,NNE,24,8.0,-999.0,74,0.00,,,0.01,PyWeather,2013-03-31 17:01:00,
2013-03-31 07:06:00,66.3,57.9,29.96,NNE,29,8.0,-999.0,74,0.00,,,0.01,PyWeather,2013-03-31 17:06:00,
2013-03-31 07:11:00,66.4,58.0,29.96,North,360,8.0,-999.0,74,0.00,,,0.01,PyWeather,2013-03-31 17:11:00,
2013-03-31 07:16:00,66.5,57.7,29.96,NNE,25,8.0,-999.0,73,0.00,,,0.01,PyWeather,2013-03-31 17:16:00,
2013-03-31 07:22:00,66.6,57.8,29.96,NE,36,8.0,-999.0,73,0.00,,,0.01,PyWeather,2013-03-31 17:22:00,
2013-03-31 07:27:00,66.7,57.9,29.96,NE,40,7.0,-999.0,73,0.00,,,0.01,PyWeather,2013-03-31 17:27:00,
2013-03-31 07:32:00,67.0,58.6,29.96,NE,44,7.0,-999.0,74,0.00,,,0.01,PyWeather,2013-03-31 17:32:00,
2013-03-31 07:33:00,67.8,58.2,29.96,NE,37,7.0,-999.0,71,0.00,,,0.01,PyWeather,2013-03-31 17:33:00,
2013-03-31 07:37:00,67.3,58.9,29.96,NE,34,7.0,-999.0,74,0.00,,,0.01,PyWeather,2013-03-31 17:37:00,
2013-03-31 07:43:00,67.4,58.6,29.96,NNE,14,6.0,-999.0,73,0.00,,,0.01,PyWeather,2013-03-31 17:43:00,
2013-03-31 07:51:00,67.8,58.2,29.96,NE,44,7.0,-999.0,71,0.00,,,0.01,PyWeather,2013-03-31 17:51:00,
2013-03-31 07:52:00,69.1,59.5,29.95,NNE,30,10.0,-999.0,71,0.00,,,0.01,PyWeather,2013-03-31 17:52:00,
2013-03-31 07:56:00,68.2,58.2,29.96,ENE,57,8.0,-999.0,70,0.00,,,0.01,PyWeather,2013-03-31 17:56:00,
2013-03-31 08:10:00,69.1,59.5,29.95,NNE,30,10.0,-999.0,71,0.00,,,0.01,PyWeather,2013-03-31 18:10:00,
2013-03-31 08:15:00,69.4,59.4,29.96,North,9,10.0,-999.0,70,0.00,,,0.01,PyWeather,2013-03-31 18:15:00,
2013-03-31 08:20:00,69.7,58.9,29.96,NNE,15,10.0,-999.0,68,0.00,,,0.01,PyWeather,2013-03-31 18:20:00,
2013-03-31 08:27:00,70.0,58.7,29.96,NNE,26,11.0,-999.0,67,0.00,,,0.01,PyWeather,2013-03-31 18:27:00,
2013-03-31 08:32:00,70.2,58.1,29.96,NE,42,10.0,-999.0,65,0.00,,,0.01,PyWeather,2013-03-31 18:32:00,
2013-03-31 08:37:00,70.4,58.3,29.96,North,9,11.0,19.0,65,0.00,,,0.01,PyWeather,2013-03-31 18:37:00,
2013-03-31 08:42:00,70.5,58.4,29.96,NNE,24,11.0,19.0,65,0.00,,,0.01,PyWeather,2013-03-31 18:42:00,
2013-03-31 08:51:00,70.7,57.7,29.96,NNE,13,12.0,-999.0,63,0.00,,,0.01,PyWeather,2013-03-31 18:51:00,
2013-03-31 08:56:00,70.8,57.3,29.96,NE,46,12.0,-999.0,62,0.00,,,0.01,PyWeather,2013-03-31 18:56:00,
2013-03-31 09:02:00,71.0,57.1,29.96,NNE,17,12.0,20.0,61,0.00,,,0.01,PyWeather,2013-03-31 19:02:00,
2013-03-31 09:11:00,71.2,56.8,29.96,NE,35,11.0,-999.0,60,0.00,,,0.01,PyWeather,2013-03-31 19:11:00,
2013-03-31 09:16:00,71.4,57.0,29.96,NE,42,11.0,-999.0,60,0.00,,,0.01,PyWeather,2013-03-31 19:16:00,
2013-03-31 09:27:00,71.6,56.2,29.96,NNE,17,12.0,-999.0,58,0.00,,,0.01,PyWeather,2013-03-31 19:27:00,
2013-03-31 09:32:00,71.4,56.0,29.96,NNE,14,12.0,-999.0,58,0.00,,,0.01,PyWeather,2013-03-31 19:32:00,
2013-03-31 09:39:00,71.6,57.2,29.96,North,360,12.0,-999.0,60,0.00,,,0.01,PyWeather,2013-03-31 19:39:00,
2013-03-31 09:51:00,72.1,55.7,29.96,North,5,12.0,-999.0,56,0.00,,,0.01,PyWeather,2013-03-31 19:51:00,
2013-03-31 09:56:00,71.9,55.0,29.96,North,5,12.0,-999.0,55,0.00,,,0.01,PyWeather,2013-03-31 19:56:00,
2013-03-31 10:04:00,72.3,56.4,29.96,NE,36,13.0,-999.0,57,0.00,,,0.01,PyWeather,2013-03-31 20:04:00,
2013-03-31 10:09:00,72.1,55.7,29.96,North,360,13.0,20.0,56,0.00,,,0.01,PyWeather,2013-03-31 20:09:00,
2013-03-31 10:22:00,72.4,55.5,29.96,NE,38,13.0,-999.0,55,0.00,,,0.01,PyWeather,2013-03-31 20:22:00,
2013-03-31 10:57:00,73.2,57.2,29.95,NNE,17,13.0,20.0,57,0.00,,,0.01,PyWeather,2013-03-31 20:57:00,
2013-03-31 11:02:00,73.0,56.5,29.95,North,5,15.0,20.0,56,0.00,,,0.01,PyWeather,2013-03-31 21:02:00,
2013-03-31 11:17:00,73.7,57.7,29.95,North,351,15.0,-999.0,57,0.00,,,0.01,PyWeather,2013-03-31 21:17:00,
2013-03-31 11:22:00,73.3,57.3,29.95,NNE,24,15.0,-999.0,57,0.00,,,0.01,PyWeather,2013-03-31 21:22:00,
2013-03-31 11:27:00,73.0,57.5,29.95,NE,44,14.0,22.0,58,0.00,,,0.01,PyWeather,2013-03-31 21:27:00,
2013-03-31 11:32:00,72.6,56.7,29.95,NNE,20,15.0,22.0,57,0.00,,,0.01,PyWeather,2013-03-31 21:32:00,
2013-03-31 11:38:00,72.9,57.4,29.95,NNE,22,14.0,24.0,58,0.00,,,0.01,PyWeather,2013-03-31 21:38:00,
2013-03-31 11:44:00,73.4,56.9,29.95,NE,35,14.0,-999.0,56,0.00,,,0.01,PyWeather,2013-03-31 21:44:00,
2013-03-31 11:49:00,73.8,57.3,29.95,NE,38,14.0,21.0,56,0.00,,,0.01,PyWeather,2013-03-31 21:49:00,
2013-03-31 11:54:00,73.6,56.6,29.95,NNE,22,14.0,21.0,55,0.00,,,0.01,PyWeather,2013-03-31 21:54:00,
2013-03-31 11:59:00,73.8,56.3,29.95,NE,34,13.0,22.0,54,0.00,,,0.01,PyWeather,2013-03-31 21:59:00,
2013-03-31 12:04:00,73.0,56.0,29.94,NNE,17,14.0,22.0,55,0.00,,,0.01,PyWeather,2013-03-31 22:04:00,
2013-03-31 12:09:00,73.1,56.6,29.94,NE,38,15.0,22.0,56,0.00,,,0.01,PyWeather,2013-03-31 22:09:00,
2013-03-31 12:14:00,73.7,56.2,29.94,NNE,33,15.0,22.0,54,0.00,,,0.01,PyWeather,2013-03-31 22:14:00,
2013-03-31 12:19:00,73.4,55.9,29.94,NE,34,15.0,24.0,54,0.00,,,0.01,PyWeather,2013-03-31 22:19:00,
2013-03-31 12:24:00,73.3,55.8,29.94,NNE,30,15.0,24.0,54,0.00,,,0.01,PyWeather,2013-03-31 22:24:00,
2013-03-31 12:29:00,73.7,56.2,29.94,NE,39,15.0,25.0,54,0.00,,,0.01,PyWeather,2013-03-31 22:29:00,
2013-03-31 12:34:00,74.0,55.4,29.94,North,9,14.0,25.0,52,0.00,,,0.01,PyWeather,2013-03-31 22:34:00,
2013-03-31 12:40:00,74.0,55.9,29.93,NNE,28,13.0,22.0,53,0.00,,,0.01,PyWeather,2013-03-31 22:40:00,
2013-03-31 12:45:00,74.4,56.3,29.93,North,9,13.0,22.0,53,0.00,,,0.01,PyWeather,2013-03-31 22:45:00,
2013-03-31 12:50:00,74.4,55.2,29.93,NNE,25,14.0,22.0,51,0.00,,,0.01,PyWeather,2013-03-31 22:50:00,
2013-03-31 12:55:00,73.7,55.6,29.93,NNE,28,15.0,22.0,53,0.00,,,0.01,PyWeather,2013-03-31 22:55:00,
2013-03-31 13:00:00,73.8,56.8,29.92,NE,45,15.0,23.0,55,0.00,,,0.01,PyWeather,2013-03-31 23:00:00,
2013-03-31 13:05:00,73.6,56.6,29.92,North,11,15.0,23.0,55,0.00,,,0.01,PyWeather,2013-03-31 23:05:00,
2013-03-31 13:10:00,74.7,57.1,29.92,NNE,13,14.0,24.0,54,0.00,,,0.01,PyWeather,2013-03-31 23:10:00,
2013-03-31 13:15:00,74.3,57.2,29.92,NNE,26,13.0,24.0,55,0.00,,,0.01,PyWeather,2013-03-31 23:15:00,
2013-03-31 13:20:00,74.0,56.4,29.92,North,5,15.0,26.0,54,0.00,,,0.01,PyWeather,2013-03-31 23:20:00,
2013-03-31 13:25:00,74.2,56.1,29.92,NNE,28,15.0,26.0,53,0.00,,,0.01,PyWeather,2013-03-31 23:25:00,
2013-03-31 13:30:00,74.4,56.3,29.92,North,360,14.0,22.0,53,0.00,,,0.01,PyWeather,2013-03-31 23:30:00,
2013-03-31 13:35:00,74.6,57.0,29.91,North,351,13.0,22.0,54,0.00,,,0.01,PyWeather,2013-03-31 23:35:00,
2013-03-31 13:40:00,74.6,55.9,29.91,NNE,30,13.0,22.0,52,0.00,,,0.01,PyWeather,2013-03-31 23:40:00,
2013-03-31 13:45:00,73.4,55.4,29.91,NE,48,15.0,22.0,53,0.00,,,0.01,PyWeather,2013-03-31 23:45:00,
2013-03-31 13:50:00,73.6,55.5,29.91,NNE,24,15.0,26.0,53,0.00,,,0.01,PyWeather,2013-03-31 23:50:00,
2013-03-31 13:55:00,73.5,55.4,29.91,NNE,29,14.0,26.0,53,0.00,,,0.01,PyWeather,2013-03-31 23:55:00,
2013-03-31 14:01:00,73.3,54.7,29.91,North,360,15.0,21.0,52,0.00,,,0.01,PyWeather,2013-04-01 00:01:00,
2013-03-31 14:06:00,73.3,55.8,29.90,NE,45,14.0,21.0,54,0.00,,,0.01,PyWeather,2013-04-01 00:06:00,
2013-03-31 14:11:00,73.6,55.5,29.90,North,5,13.0,22.0,53,0.00,,,0.01,PyWeather,2013-04-01 00:11:00,
2013-03-31 14:16:00,74.7,55.5,29.89,NE,56,13.0,22.0,51,0.00,,,0.01,PyWeather,2013-04-01 00:16:00,
2013-03-31 14:21:00,74.3,55.1,29.89,NE,51,13.0,20.0,51,0.00,,,0.01,PyWeather,2013-04-01 00:21:00,
2013-03-31 14:26:00,74.0,54.8,29.89,NE,55,13.0,20.0,51,0.00,,,0.01,PyWeather,2013-04-01 00:26:00,
2013-03-31 14:31:00,73.8,54.6,29.89,ENE,63,14.0,22.0,51,0.00,,,0.01,PyWeather,2013-04-01 00:31:00,
2013-03-31 14:36:00,73.6,55.0,29.89,NE,54,14.0,22.0,52,0.00,,,0.01,PyWeather,2013-04-01 00:36:00,
2013-03-31 14:41:00,73.7,54.5,29.89,NNE,30,13.0,22.0,51,0.00,,,0.01,PyWeather,2013-04-01 00:41:00,
2013-03-31 14:46:00,73.8,55.2,29.89,NNE,30,13.0,22.0,52,0.00,,,0.01,PyWeather,2013-04-01 00:46:00,
2013-03-31 14:51:00,74.5,55.3,29.89,NNE,29,12.0,22.0,51,0.00,,,0.01,PyWeather,2013-04-01 00:51:00,
2013-03-31 14:56:00,74.4,55.2,29.88,NNE,28,12.0,22.0,51,0.00,,,0.01,PyWeather,2013-04-01 00:56:00,
2013-03-31 15:01:00,74.1,54.9,29.88,NNW,343,13.0,21.0,51,0.00,,,0.01,PyWeather,2013-04-01 01:01:00,
2013-03-31 15:06:00,74.1,55.5,29.88,North,5,12.0,21.0,52,0.00,,,0.01,PyWeather,2013-04-01 01:06:00,
2013-03-31 15:12:00,74.1,54.9,29.88,NNE,13,12.0,20.0,51,0.00,,,0.01,PyWeather,2013-04-01 01:12:00,
2013-03-31 15:17:00,74.0,55.9,29.88,North,360,13.0,20.0,53,0.00,,,0.01,PyWeather,2013-04-01 01:17:00,
2013-03-31 15:22:00,74.2,57.1,29.88,NNE,30,13.0,21.0,55,0.00,,,0.01,PyWeather,2013-04-01 01:22:00,
2013-03-31 15:27:00,73.9,56.9,29.88,NNE,30,14.0,21.0,55,0.00,,,0.01,PyWeather,2013-04-01 01:27:00,
2013-03-31 15:32:00,73.9,56.3,29.88,NNE,13,14.0,23.0,54,0.00,,,0.01,PyWeather,2013-04-01 01:32:00,
2013-03-31 15:37:00,73.4,56.4,29.88,North,9,15.0,23.0,55,0.00,,,0.01,PyWeather,2013-04-01 01:37:00,
2013-03-31 15:42:00,73.5,55.4,29.88,NNE,24,14.0,23.0,53,0.00,,,0.01,PyWeather,2013-04-01 01:42:00,
2013-03-31 15:47:00,73.5,57.0,29.88,NE,39,14.0,22.0,56,0.00,,,0.01,PyWeather,2013-04-01 01:47:00,
2013-03-31 15:53:00,73.6,57.1,29.88,NNE,24,14.0,22.0,56,0.00,,,0.01,PyWeather,2013-04-01 01:53:00,
2013-03-31 15:58:00,73.5,56.5,29.88,NNE,12,14.0,23.0,55,0.00,,,0.01,PyWeather,2013-04-01 01:58:00,
2013-03-31 16:03:00,73.1,56.1,29.88,North,9,14.0,23.0,55,0.00,,,0.01,PyWeather,2013-04-01 02:03:00,
2013-03-31 16:08:00,73.2,56.2,29.88,NNE,24,13.0,21.0,55,0.00,,,0.01,PyWeather,2013-04-01 02:08:00,
2013-03-31 16:13:00,73.2,55.7,29.88,North,360,13.0,21.0,54,0.00,,,0.01,PyWeather,2013-04-01 02:13:00,
2013-03-31 16:18:00,73.6,54.4,29.88,NNE,23,13.0,20.0,51,0.00,,,0.01,PyWeather,2013-04-01 02:18:00,
2013-03-31 16:23:00,73.3,54.7,29.87,North,360,13.0,20.0,52,0.00,,,0.01,PyWeather,2013-04-01 02:23:00,
2013-03-31 16:28:00,73.5,55.4,29.87,NNE,33,13.0,21.0,53,0.00,,,0.01,PyWeather,2013-04-01 02:28:00,
2013-03-31 16:33:00,72.8,54.8,29.87,NNE,32,14.0,21.0,53,0.00,,,0.01,PyWeather,2013-04-01 02:33:00,
2013-03-31 16:38:00,72.8,55.8,29.87,NNE,28,14.0,23.0,55,0.00,,,0.01,PyWeather,2013-04-01 02:38:00,
2013-03-31 16:43:00,72.6,55.7,29.88,North,5,14.0,23.0,55,0.00,,,0.01,PyWeather,2013-04-01 02:43:00,
2013-03-31 16:48:00,72.7,55.2,29.87,North,360,13.0,22.0,54,0.00,,,0.01,PyWeather,2013-04-01 02:48:00,
2013-03-31 16:53:00,72.6,55.1,29.87,NNE,18,12.0,22.0,54,0.00,,,0.01,PyWeather,2013-04-01 02:53:00,
2013-03-31 16:58:00,72.5,55.6,29.87,North,5,12.0,22.0,55,0.00,,,0.01,PyWeather,2013-04-01 02:58:00,
2013-03-31 17:03:00,72.3,56.4,29.87,NNE,15,12.0,22.0,57,0.00,,,0.01,PyWeather,2013-04-01 03:03:00,
2013-03-31 17:09:00,72.5,56.1,29.87,NE,38,11.0,21.0,56,0.00,,,0.01,PyWeather,2013-04-01 03:09:00,
2013-03-31 17:14:00,72.5,56.6,29.87,NNE,32,12.0,21.0,57,0.00,,,0.01,PyWeather,2013-04-01 03:14:00,
2013-03-31 17:19:00,72.2,55.8,29.87,NNE,29,13.0,20.0,56,0.00,,,0.01,PyWeather,2013-04-01 03:19:00,
2013-03-31 17:24:00,72.1,56.7,29.87,NE,36,12.0,20.0,58,0.00,,,0.01,PyWeather,2013-04-01 03:24:00,
2013-03-31 17:29:00,71.8,56.4,29.87,NE,36,12.0,19.0,58,0.00,,,0.01,PyWeather,2013-04-01 03:29:00,
2013-03-31 17:34:00,71.5,56.6,29.87,NNE,33,12.0,19.0,59,0.00,,,0.01,PyWeather,2013-04-01 03:34:00,
2013-03-31 17:39:00,71.5,56.6,29.87,NNE,30,11.0,-999.0,59,0.00,,,0.01,PyWeather,2013-04-01 03:39:00,
2013-03-31 17:45:00,71.4,56.0,29.87,NE,41,11.0,-999.0,58,0.00,,,0.01,PyWeather,2013-04-01 03:45:00,
2013-03-31 17:50:00,71.3,56.4,29.87,NE,43,11.0,-999.0,59,0.00,,,0.01,PyWeather,2013-04-01 03:50:00,
2013-03-31 17:55:00,71.1,56.2,29.87,NNE,24,12.0,-999.0,59,0.00,,,0.01,PyWeather,2013-04-01 03:55:00,
2013-03-31 18:00:00,70.8,56.4,29.87,NE,39,11.0,-999.0,60,0.00,,,0.01,PyWeather,2013-04-01 04:00:00,
2013-03-31 18:01:00,70.7,56.3,29.88,NNE,23,11.0,-999.0,60,0.00,,,0.01,PyWeather,2013-04-01 04:01:00,
2013-03-31 18:02:00,70.6,56.7,29.88,NNE,33,11.0,-999.0,61,0.00,,,0.01,PyWeather,2013-04-01 04:02:00,
2013-03-31 18:07:00,70.5,56.6,29.88,NE,36,9.0,16.0,61,0.00,,,0.01,PyWeather,2013-04-01 04:07:00,
2013-03-31 18:13:00,70.3,56.9,29.88,NE,35,9.0,16.0,62,0.00,,,0.01,PyWeather,2013-04-01 04:13:00,
2013-03-31 18:18:00,69.9,56.5,29.88,North,9,11.0,19.0,62,0.00,,,0.01,PyWeather,2013-04-01 04:18:00,
2013-03-31 18:23:00,69.7,56.7,29.88,ENE,58,11.0,19.0,63,0.00,,,0.01,PyWeather,2013-04-01 04:23:00,
2013-03-31 18:28:00,69.5,57.0,29.88,NNE,28,9.0,-999.0,64,0.00,,,0.01,PyWeather,2013-04-01 04:28:00,
2013-03-31 18:34:00,69.3,57.2,29.89,NNE,30,9.0,-999.0,65,0.00,,,0.01,PyWeather,2013-04-01 04:34:00,
2013-03-31 18:39:00,69.1,57.4,29.89,NE,42,9.0,17.0,66,0.00,,,0.01,PyWeather,2013-04-01 04:39:00,
2013-03-31 18:44:00,69.0,57.8,29.89,NNE,23,9.0,17.0,67,0.00,,,0.01,PyWeather,2013-04-01 04:44:00,
2013-03-31 18:49:00,68.8,57.6,29.89,NE,36,8.0,16.0,67,0.00,,,0.01,PyWeather,2013-04-01 04:49:00,
2013-03-31 18:54:00,68.7,57.9,29.89,NE,36,8.0,16.0,68,0.00,,,0.01,PyWeather,2013-04-01 04:54:00,
2013-03-31 18:59:00,68.6,57.8,29.89,NE,50,8.0,-999.0,68,0.00,,,0.01,PyWeather,2013-04-01 04:59:00,
2013-03-31 19:04:00,68.7,57.9,29.89,NE,39,8.0,-999.0,68,0.00,,,0.01,PyWeather,2013-04-01 05:04:00,
2013-03-31 19:09:00,68.7,57.9,29.90,NE,51,8.0,-999.0,68,0.00,,,0.01,PyWeather,2013-04-01 05:09:00,
2013-03-31 19:14:00,68.6,57.8,29.90,ENE,59,6.0,-999.0,68,0.00,,,0.01,PyWeather,2013-04-01 05:14:00,
2013-03-31 19:19:00,68.3,57.9,29.90,NE,46,5.0,-999.0,69,0.00,,,0.01,PyWeather,2013-04-01 05:19:00,
2013-03-31 19:24:00,68.0,57.6,29.90,ENE,63,6.0,-999.0,69,0.00,,,0.01,PyWeather,2013-04-01 05:24:00,
2013-03-31 19:29:00,67.7,57.3,29.90,East,91,6.0,-999.0,69,0.00,,,0.01,PyWeather,2013-04-01 05:29:00,
2013-03-31 19:34:00,67.6,57.6,29.90,ENE,78,6.0,-999.0,70,0.00,,,0.01,PyWeather,2013-04-01 05:34:00,
2013-03-31 19:40:00,67.5,57.5,29.90,ENE,67,6.0,-999.0,70,0.00,,,0.01,PyWeather,2013-04-01 05:40:00,
2013-03-31 19:45:00,67.3,57.3,29.91,East,79,6.0,-999.0,70,0.00,,,0.01,PyWeather,2013-04-01 05:45:00,
2013-03-31 19:50:00,67.1,57.2,29.91,East,82,6.0,-999.0,70,0.00,,,0.01,PyWeather,2013-04-01 05:50:00,
2013-03-31 19:55:00,66.8,57.3,29.91,East,84,5.0,-999.0,71,0.00,,,0.01,PyWeather,2013-04-01 05:55:00,
2013-03-31 20:01:00,66.7,57.2,29.91,ENE,73,6.0,-999.0,71,0.00,,,0.01,PyWeather,2013-04-01 06:01:00,
2013-03-31 20:06:00,66.7,57.2,29.91,ENE,75,6.0,-999.0,71,0.00,,,0.01,PyWeather,2013-04-01 06:06:00,
2013-03-31 20:11:00,66.8,57.3,29.92,ENE,78,5.0,-999.0,71,0.00,,,0.01,PyWeather,2013-04-01 06:11:00,
2013-03-31 20:16:00,66.7,57.2,29.92,ENE,78,4.0,-999.0,71,0.00,,,0.01,PyWeather,2013-04-01 06:16:00,
2013-03-31 20:21:00,66.4,56.9,29.92,East,80,4.0,-999.0,71,0.00,,,0.01,PyWeather,2013-04-01 06:21:00,
2013-03-31 20:26:00,66.3,57.2,29.92,East,80,4.0,-999.0,72,0.00,,,0.01,PyWeather,2013-04-01 06:26:00,
2013-03-31 20:32:00,66.3,57.2,29.92,ENE,64,4.0,-999.0,72,0.00,,,0.01,PyWeather,2013-04-01 06:32:00,
2013-03-31 20:37:00,66.3,57.2,29.92,ENE,73,4.0,-999.0,72,0.00,,,0.01,PyWeather,2013-04-01 06:37:00,
2013-03-31 20:42:00,66.3,57.2,29.92,East,82,4.0,-999.0,72,0.00,,,0.01,PyWeather,2013-04-01 06:42:00,
2013-03-31 20:47:00,66.2,57.1,29.93,East,95,4.0,-999.0,72,0.00,,,0.01,PyWeather,2013-04-01 06:47:00,
2013-03-31 20:52:00,65.9,57.1,29.92,ENE,72,4.0,-999.0,73,0.00,,,0.01,PyWeather,2013-04-01 06:52:00,
2013-03-31 20:57:00,65.9,57.1,29.93,ENE,69,3.0,-999.0,73,0.00,,,0.01,PyWeather,2013-04-01 06:57:00,
2013-03-31 21:02:00,66.0,57.6,29.92,ENE,61,2.0,-999.0,74,0.00,,,0.01,PyWeather,2013-04-01 07:02:00,
2013-03-31 21:07:00,66.1,57.7,29.93,ENE,60,3.0,-999.0,74,0.00,,,0.01,PyWeather,2013-04-01 07:07:00,
2013-03-31 21:12:00,66.1,57.7,29.93,ENE,58,1.0,-999.0,74,0.00,,,0.01,PyWeather,2013-04-01 07:12:00,
2013-03-31 21:18:00,65.9,57.5,29.93,ENE,76,2.0,-999.0,74,0.00,,,0.01,PyWeather,2013-04-01 07:18:00,
2013-03-31 21:23:00,65.8,57.4,29.93,East,84,2.0,-999.0,74,0.00,,,0.01,PyWeather,2013-04-01 07:23:00,
2013-03-31 21:28:00,65.7,57.7,29.93,NE,40,1.0,-999.0,75,0.00,,,0.01,PyWeather,2013-04-01 07:28:00,
2013-03-31 21:33:00,65.7,57.3,29.93,NE,55,1.0,-999.0,74,0.00,,,0.01,PyWeather,2013-04-01 07:33:00,
2013-03-31 21:38:00,65.3,57.3,29.93,ENE,71,1.0,-999.0,75,0.00,,,0.01,PyWeather,2013-04-01 07:38:00,
2013-03-31 21:43:00,65.1,57.1,29.93,ENE,71,2.0,-999.0,75,0.00,,,0.01,PyWeather,2013-04-01 07:43:00,
2013-03-31 21:48:00,64.9,56.9,29.93,ENE,76,3.0,-999.0,75,0.00,,,0.01,PyWeather,2013-04-01 07:48:00,
2013-03-31 21:53:00,64.8,56.8,29.93,ENE,69,3.0,-999.0,75,0.00,,,0.01,PyWeather,2013-04-01 07:53:00,
2013-03-31 21:58:00,64.7,57.1,29.93,ENE,74,2.0,-999.0,76,0.00,,,0.01,PyWeather,2013-04-01 07:58:00,
2013-03-31 22:03:00,64.6,57.0,29.93,ENE,69,1.0,-999.0,76,0.00,,,0.01,PyWeather,2013-04-01 08:03:00,
2013-03-31 22:08:00,64.6,57.0,29.93,ENE,68,1.0,-999.0,76,0.00,,,0.01,PyWeather,2013-04-01 08:08:00,
2013-03-31 22:13:00,64.5,56.9,29.93,East,87,2.0,-999.0,76,0.00,,,0.01,PyWeather,2013-04-01 08:13:00,
2013-03-31 22:18:00,64.6,57.0,29.93,East,81,4.0,-999.0,76,0.00,,,0.01,PyWeather,2013-04-01 08:18:00,
2013-03-31 22:23:00,64.7,57.1,29.93,ENE,74,5.0,-999.0,76,0.00,,,0.01,PyWeather,2013-04-01 08:23:00,
2013-03-31 22:28:00,64.7,57.1,29.93,ENE,68,4.0,-999.0,76,0.00,,,0.01,PyWeather,2013-04-01 08:28:00,
2013-03-31 22:33:00,64.7,57.1,29.92,ENE,57,4.0,-999.0,76,0.00,,,0.01,PyWeather,2013-04-01 08:33:00,
2013-03-31 22:38:00,65.0,57.0,29.92,NE,40,4.0,-999.0,75,0.00,,,0.01,PyWeather,2013-04-01 08:38:00,
2013-03-31 22:43:00,65.1,57.1,29.92,NE,38,4.0,-999.0,75,0.00,,,0.01,PyWeather,2013-04-01 08:43:00,
2013-03-31 22:49:00,65.2,56.8,29.92,NE,43,3.0,-999.0,74,0.00,,,0.01,PyWeather,2013-04-01 08:49:00,
2013-03-31 22:54:00,65.0,56.6,29.92,NE,49,2.0,-999.0,74,0.00,,,0.01,PyWeather,2013-04-01 08:54:00,
2013-03-31 22:59:00,64.6,56.3,29.92,NE,48,1.0,-999.0,74,0.00,,,0.01,PyWeather,2013-04-01 08:59:00,
2013-03-31 23:04:00,64.2,55.9,29.92,ENE,62,1.0,-999.0,74,0.00,,,0.01,PyWeather,2013-04-01 09:04:00,
2013-03-31 23:09:00,64.0,55.7,29.92,ENE,75,3.0,-999.0,74,0.00,,,0.01,PyWeather,2013-04-01 09:09:00,
2013-03-31 23:14:00,63.9,55.6,29.92,ENE,71,3.0,-999.0,74,0.00,,,0.01,PyWeather,2013-04-01 09:14:00,
2013-03-31 23:19:00,63.9,55.6,29.92,East,80,3.0,-999.0,74,0.00,,,0.01,PyWeather,2013-04-01 09:19:00,
2013-03-31 23:24:00,63.8,55.5,29.92,ENE,73,3.0,-999.0,74,0.00,,,0.01,PyWeather,2013-04-01 09:24:00,
2013-03-31 23:30:00,63.8,55.5,29.92,ENE,71,3.0,-999.0,74,0.00,,,0.01,PyWeather,2013-04-01 09:30:00,
2013-03-31 23:35:00,63.9,55.6,29.91,ENE,60,3.0,-999.0,74,0.00,,,0.01,PyWeather,2013-04-01 09:35:00,
2013-03-31 23:40:00,64.2,55.5,29.92,ENE,74,3.0,-999.0,73,0.00,,,0.01,PyWeather,2013-04-01 09:40:00,
2013-03-31 23:45:00,64.2,55.5,29.92,NE,51,3.0,-999.0,73,0.00,,,0.01,PyWeather,2013-04-01 09:45:00,
2013-03-31 23:50:00,64.4,55.7,29.92,NE,40,2.0,-999.0,73,0.00,,,0.01,PyWeather,2013-04-01 09:50:00,
2013-03-31 23:55:00,64.5,55.8,29.91,NE,49,2.0,-999.0,73,0.00,,,0.01,PyWeather,2013-04-01 09:55:00,